Zurück zum Katalog

CZ-4 DEB

AktivSSO
NORAD 29040·DEBRIS·🇨🇳 China

Gestartet Oct 14, 1999 von Taiyuan Satellite Launch Center

Loading…

Nächste Überflüge (nächste 24 Stunden)

TLE

AktuellSource: Space-Track

Epoche: Sep 14, 2026, 10:10 UTC

1 29040U 99057NK  26257.42376336  .00000408  00000-0  11839-3 0  9998
2 29040  98.5755 311.1387 0072794 299.0559  60.3355 14.48375046232728

Verfolge CZ-4 DEB in Echtzeit mit AllMySat

Download on the App Store